Zurück zum Katalog

STARLINK-2266

AktivKommunikationVLEO
NORAD 47997·PAYLOAD·🇺🇸 United States

Gestartet Mar 24, 2021 von Cape Canaveral Space Force Station

Loading…

Nächste Überflüge (nächste 24 Stunden)

TLE

AktuellSource: CelesTrak SupGP

Epoche: Sep 14, 2026, 20:09 UTC

1 47997C 21024W   26257.84006944 -.00026839  00000+0 -86325-3 0  2575
2 47997  53.1583 146.5067 0001409  96.8067  51.9952 15.31708650    10

Verfolge STARLINK-2266 in Echtzeit mit AllMySat

Download on the App Store